GW3154 Weather Reports


Display with metric or nautical units.
time (UTC)temp
F
wind
direction
speed
MPH
gust
MPH
rain 1hr
in
rain 24hr
in
rain mn
in
humidity
%
barometer
mb
20260508030035 65 47 0.0 0.0 0.00 0.00 0.00 60 1017.1
20260508024535 66 47 0.0 0.0 0.00 0.00 0.00 57 1017.0
20260508023032 69 37 1.0 1.0 0.00 0.00 0.00 50 1017.0
20260508021532 69 62 1.0 1.0 0.00 0.00 0.00 46 1017.0
20260508020029 70 50 1.0 2.0 0.00 0.00 0.00 46 1017.1
20260508014526 71 90 0.0 0.0 0.00 0.00 0.00 44 1017.1
20260508013021 71 110 0.0 1.0 0.00 0.00 0.00 43 1017.5
20260508011520 72 356 2.0 2.0 0.00 0.00 0.00 43 1017.5
20260508010017 74 107 1.0 1.0 0.00 0.00 0.00 41 1017.6
20260508004513 73 47 0.0 1.0 0.00 0.00 0.00 41 1017.6
20260508003009 75 241 1.0 1.0 0.00 0.00 0.00 40 1017.7
20260508001504 73 223 1.0 1.0 0.00 0.00 0.00 44 1017.8
20260507235959 75 202 2.0 2.0 0.00 0.00 0.00 43 1017.9
20260507234456 75 181 0.0 0.0 0.00 0.00 0.00 41 1018.2
20260507232954 74 37 0.0 0.0 0.00 0.00 0.00 43 1018.3
20260507231454 75 221 0.0 0.0 0.00 0.00 0.00 40 1018.4
20260507225949 74 18 1.0 1.0 0.00 0.00 0.00 43 1018.6
20260507224444 75 59 1.0 1.0 0.00 0.00 0.00 44 1018.8
20260507222940 73 54 1.0 1.0 0.00 0.00 0.00 43 1018.9
20260507221436 73 55 2.0 2.0 0.00 0.00 0.00 42 1019.0
20260507215932 72 304 2.0 2.0 0.00 0.00 0.00 45 1019.4
20260507214430 72 121 0.0 1.0 0.00 0.00 0.00 48 1019.4
20260507212925 71 284 2.0 3.0 0.00 0.00 0.00 50 1019.6
20260507211420 71 88 0.0 0.0 0.00 0.00 0.00 51 1019.7
20260507205916 69 322 0.0 0.0 0.00 0.00 0.00 52 1019.9
20260507204412 70 61 0.0 0.0 0.00 0.00 0.00 52 1020.2
20260507202910 69 173 1.0 1.0 0.00 0.00 0.00 55 1020.5
20260507201409 68 159 1.0 1.0 0.00 0.00 0.00 57 1020.7
20260507195910 68 312 2.0 3.0 0.00 0.00 0.00 60 1020.7
20260507194407 67 298 2.0 2.0 0.00 0.00 0.00 58 1021.0
20260507192902 65 167 3.0 3.0 0.00 0.00 0.00 62 1021.0
20260507191357 66 101 0.0 0.0 0.00 0.00 0.00 64 1021.2
20260507185856 67 127 0.0 0.0 0.00 0.00 0.00 60 1021.2
20260507184353 67 224 0.0 0.0 0.00 0.00 0.00 62 1021.3
20260507182850 64 7 1.0 1.0 0.00 0.00 0.00 65 1021.5
20260507181349 62 24 0.0 2.0 0.00 0.00 0.00 71 1021.6
20260507175845 64 324 2.0 3.0 0.00 0.00 0.00 67 1021.7
20260507174343 62 186 0.0 0.0 0.00 0.00 0.00 69 1021.8
20260507172839 64 38 1.0 2.0 0.00 0.00 0.00 66 1021.8
20260507171335 61 58 0.0 0.0 0.00 0.00 0.00 71 1021.8
20260507165830 63 354 2.0 2.0 0.00 0.00 0.00 67 1021.6
20260507164330 61 124 0.0 1.0 0.00 0.00 0.00 71 1021.7
20260507162827 59 293 1.0 1.0 0.00 0.00 0.00 74 1021.9
20260507161322 58 11 1.0 2.0 0.00 0.00 0.00 77 1021.8
20260507155817 57 62 0.0 1.0 0.00 0.00 0.00 76 1021.8
20260507154313 56 36 2.0 2.0 0.00 0.00 0.00 78 1022.1
20260507152808 56 91 0.0 1.0 0.00 0.00 0.00 79 1021.7
20260507151309 55 75 1.0 2.0 0.00 0.00 0.00 79 1022.0
20260507145804 55 68 0.0 1.0 0.00 0.00 0.00 80 1022.1
20260507144301 55 45 0.0 0.0 0.00 0.00 0.00 81 1021.9
20260507142757 55 37 0.0 1.0 0.00 0.00 0.00 81 1021.9
20260507141253 54 61 0.0 0.0 0.00 0.00 0.00 82 1021.8
20260507135749 54 55 0.0 0.0 0.00 0.00 0.00 83 1021.7
20260507134246 53 238 0.0 0.0 0.00 0.00 0.00 83 1021.4
20260507132742 53 56 0.0 0.0 0.00 0.00 0.00 84 1021.5
20260507131238 54 73 0.0 1.0 0.00 0.00 0.00 84 1021.6
20260507125737 54 83 0.0 0.0 0.00 0.00 0.00 85 1021.8
20260507124233 54 48 0.0 0.0 0.00 0.00 0.00 87 1021.8
20260507122730 54 243 1.0 1.0 0.00 0.00 0.00 87 1021.8
20260507121230 54 23 1.0 2.0 0.00 0.00 0.00 88 1021.8
20260507115725 54 22 0.0 0.0 0.00 0.00 0.00 88 1022.0
20260507114220 54 53 0.0 0.0 0.00 0.00 0.00 89 1021.9
20260507112718 54 53 0.0 0.0 0.00 0.00 0.00 88 1022.0
20260507111215 54 60 0.0 0.0 0.00 0.00 0.00 88 1022.2
20260507105710 54 86 0.0 0.0 0.00 0.00 0.00 88 1022.2
20260507104206 54 38 0.0 0.0 0.00 0.00 0.00 88 1022.2
20260507102701 54 27 0.0 0.0 0.00 0.00 0.00 88 1022.2
20260507101200 54 308 0.0 1.0 0.00 0.00 0.00 88 1022.4
20260507095700 54 21 0.0 0.0 0.00 0.00 0.00 87 1022.4
20260507094155 54 317 0.0 0.0 0.00 0.00 0.00 87 1022.5
20260507092654 54 319 0.0 0.0 0.00 0.00 0.00 87 1022.7
20260507091149 54 334 0.0 0.0 0.00 0.00 0.00 87 1022.7
20260507085645 54 284 0.0 0.0 0.00 0.00 0.00 86 1022.9
20260507084141 54 231 0.0 1.0 0.00 0.00 0.00 86 1022.8
20260507082637 54 39 0.0 0.0 0.00 0.00 0.00 86 1022.8
20260507081137 54 208 0.0 0.0 0.00 0.00 0.00 86 1022.8
20260507075636 54 253 1.0 1.0 0.00 0.00 0.00 85 1022.9
20260507074134 54 292 0.0 1.0 0.00 0.00 0.00 86 1022.9
20260507072630 54 221 0.0 0.0 0.00 0.00 0.00 85 1022.9
20260507071126 54 200 0.0 0.0 0.00 0.00 0.00 85 1022.8
20260507065621 54 77 0.0 0.0 0.00 0.00 0.00 86 1022.7
20260507064121 54 267 0.0 0.0 0.00 0.00 0.00 85 1022.8
20260507062617 54 328 0.0 1.0 0.00 0.00 0.00 86 1023.0
20260507061116 54 323 1.0 1.0 0.00 0.00 0.00 86 1022.9
20260507055611 53 242 0.0 0.0 0.00 0.00 0.00 87 1022.9
20260507054107 53 336 0.0 0.0 0.00 0.00 0.00 86 1022.8
20260507052607 53 191 0.0 0.0 0.00 0.00 0.00 86 1022.9
20260507051103 54 311 3.0 5.0 0.00 0.00 0.00 85 1022.9
20260507045559 54 281 2.0 3.0 0.00 0.00 0.00 85 1022.8
20260507044055 54 181 0.0 0.0 0.00 0.00 0.00 85 1022.7
20260507042550 54 59 0.0 0.0 0.00 0.00 0.00 86 1022.6
20260507041046 55 63 0.0 0.0 0.00 0.00 0.00 85 1022.3
20260507035546 56 199 0.0 0.0 0.00 0.00 0.00 84 1022.2
20260507034043 57 261 0.0 0.0 0.00 0.00 0.00 83 1021.9
20260507032541 57 272 1.0 2.0 0.00 0.00 0.00 81 1021.9